Overview Statistics Trail Chart Weather Telemetry Raw packets
 

This is the latest recevied weather packets stored in our database for station/object N6ZHV-13. If no packets are shown the sender has not sent any weather packets the latest 10 day(s).

<< 80 81 82 83 84 85 86 >>
Time Temp. Humidity Pressure Rain* Wind** Luminosity Snow
1788116830 30° C 51% 1008.1 hPa 0 mm - - -
1788116530 29.44° C 51% 1007.9 hPa 0 mm - - -
1788116230 29.44° C 52% 1008 hPa 0 mm - - -
1788115930 29.44° C 53% 1008 hPa 0 mm - - -
1788115630 28.89° C 53% 1008.3 hPa 0 mm - - -
1788115330 28.89° C 54% 1008.1 hPa 0 mm - - -
1788115030 28.33° C 55% 1008.4 hPa 0 mm - - -
1788114730 28.33° C 56% 1008.4 hPa 0 mm - - -
1788114430 28.33° C 57% 1008.1 hPa 0 mm - - -
1788114130 28.33° C 57% 1008.1 hPa 0 mm - - -
1788113830 27.78° C 58% 1008.4 hPa 0 mm - - -
1788113530 27.78° C 59% 1008.3 hPa 0 mm - - -
1788113230 27.78° C 61% 1008.3 hPa 0 mm - - -
1788112930 27.22° C 61% 1008.1 hPa 0 mm - - -
1788112630 27.22° C 63% 1008.1 hPa 0 mm - - -
1788112333 27.22° C 64% 1008.3 hPa 0 mm - - -
1788112030 26.67° C 65% 1008.3 hPa 0 mm - - -
1788111730 26.67° C 66% 1008.1 hPa 0 mm - - -
1788111430 26.67° C 66% 1008.1 hPa 0 mm - - -
1788111130 26.67° C 67% 1008.1 hPa 0 mm - - -
1788110830 26.11° C 66% 1008.3 hPa 0 mm - - -
1788110530 26.11° C 68% 1008.3 hPa 0 mm - - -
1788110230 26.11° C 69% 1008.1 hPa 0 mm - - -
1788109930 25.56° C 68% 1008 hPa 0 mm - - -
1788109630 26.11° C 70% 1008.1 hPa 0 mm - - -

* Rain latest hour (hover to see other rain measurements)
** Current wind speed in m/s (hover to see current wind gust speed)